Location: Home
(42.5358°N, 72.7383°W)
Time: 08:56:50
(UTC-05:00)

Transit 4A - Pass Details

Date: 08 December 2021
Orbit: 864 x 981 km, 66.8° (Epoch: 21 January)

Event Time Altitude Azimuth Distance (km) Brightness Sun altitude
Exits shadow 04:12:38 11° 185° (S) 2,649 10.2 -31.5°
Drops below altitude 10° 04:12:51 10° 184° (S) 2,721 10.3 -31.4°
Sets 04:15:36 0° 177° (S) 3,667 11.1 -30.9°
